Location: Zagreb
(45.8000°N, 16.0000°E)
Time: 20:31:04
(UTC+02:00)

SR - Pass Details

Date: 14 August 2020
Orbit: 583 x 873 km, 66.7° (Epoch: 28 September)

Event Time Altitude Azimuth Distance (km) Brightness Sun altitude
Rises 20:44:38 0° 186° (S) 2,979 ? -7.1°
Reaches altitude 10° 20:47:10 10° 176° (S) 2,028 ? -7.4°
Maximum altitude 20:51:10 31° 114° (ESE) 1,081 ? -8.1°
Drops below altitude 10° 20:55:00 10° 52° (NE) 1,939 ? -8.6°
Sets 20:57:22 0° 42° (NE) 2,826 ? -9.0°
